Location: Lafig�re
(44.4503°N, 4.0357°E)
Time: 23:09:19
(UTC+00:00)

Cosmos 2150 Rocket - Pass Details

Date: 22 January 2021
Orbit: 748 x 808 km, 74.0° (Epoch: 06 March)

Event Time Altitude Azimuth Distance (km) Brightness Sun altitude
Exits shadow 03:57:24 - 7° (N) 2,797 7.0 -34.5°
Reaches altitude 10° 04:00:35 10° 36° (NE) 2,347 6.9 -33.9°
Maximum altitude 04:01:23 10° 45° (NE) 2,328 7.0 -33.8°
Drops below altitude 10° 04:02:11 10° 54° (NE) 2,352 7.1 -33.7°
Sets 04:07:15 0° 95° (E) 3,293 8.3 -32.8°
